This is the latest recevied weather packets stored in our database for station/object KQ4PPF. If no packets are shown the sender has not sent any weather packets the latest 10 day(s).
| Time | Temp. | Humidity | Pressure | Rain* | Wind** | Luminosity | Snow |
|---|---|---|---|---|---|---|---|
| 1788566609 | 30° C | 72% | 1013.9 hPa | 0 mm | - | 0 W/m² | - |
| 1788566304 | 30° C | 71% | 1014 hPa | 0 mm | - | 0 W/m² | - |
| 1788565999 | 30° C | 71% | 1013.9 hPa | 0 mm | - | 0 W/m² | - |
| 1788565694 | 30° C | 70% | 1013.7 hPa | 0 mm | - | 1 W/m² | - |
| 1788565389 | 30° C | 69% | 1013.7 hPa | 0 mm | - | 1 W/m² | - |
| 1788565085 | 30.56° C | 71% | 1013.8 hPa | 0 mm | - | 2 W/m² | - |
| 1788564781 | 30.56° C | 68% | 1013.6 hPa | 0 mm | - | 3 W/m² | - |
| 1788564477 | 30.56° C | 70% | 1013.4 hPa | 0 mm | - | 3 W/m² | - |
| 1788564168 | 31.11° C | 70% | 1013.6 hPa | 0 mm | - | 4 W/m² | - |
| 1788563883 | 31.11° C | 69% | 1013.4 hPa | 0 mm | - | 6 W/m² | - |
| 1788563558 | 31.67° C | 68% | 1013.4 hPa | 0 mm | - | 7 W/m² | - |
| 1788563252 | 31.67° C | 66% | 1013.3 hPa | 0 mm | - | 9 W/m² | - |
| 1788562946 | 31.67° C | 66% | 1013.6 hPa | 0 mm | - | 9 W/m² | - |
| 1788562646 | 32.22° C | 65% | 1013.4 hPa | 0 mm | - | 10 W/m² | - |
| 1788562340 | 32.78° C | 62% | 1013.4 hPa | 0 mm | - | 11 W/m² | - |
| 1788562039 | 33.33° C | 61% | 1013.4 hPa | 0 mm | - | 10 W/m² | - |
| 1788561735 | 33.89° C | 57% | 1013.6 hPa | 0 mm | - | 11 W/m² | - |
| 1788561434 | 33.89° C | 55% | 1013.5 hPa | 0 mm | - | 15 W/m² | - |
| 1788561129 | 33.89° C | 57% | 1013.4 hPa | 0 mm | - | 19 W/m² | - |
| 1788560824 | 33.89° C | 56% | 1013.4 hPa | 0 mm | - | 20 W/m² | - |
| 1788560520 | 33.89° C | 55% | 1013.5 hPa | 0 mm | - | 23 W/m² | - |
| 1788560219 | 33.89° C | 56% | 1013.3 hPa | 0 mm | - | 27 W/m² | - |
| 1788559914 | 33.89° C | 56% | 1013.4 hPa | 0 mm | - | 28 W/m² | - |
| 1788559609 | 33.33° C | 58% | 1012.8 hPa | 0 mm | - | 30 W/m² | - |
| 1788559304 | 32.78° C | 60% | 1013 hPa | 0 mm | - | 29 W/m² | - |
* Rain latest hour (hover to see other rain measurements)
** Current wind speed in m/s (hover to see current wind gust speed)